• In Uzbekistan
  • List of Countries
  • For 7 days
  • Water Temperature
  • Satellite Maps
  • Weather Map
  • Weather Widgets
  • user-avatar
    Login

    Hourly Weather Tatabanya

    Today, 20 September, Thursday

    Time Temperature Precipitation Wind Pressure Humidity
    00:00 +20°C° 0 mm 1 mps 745 mmHg 57%
    01:00 +19°C° 0 mm 1 mps 745 mmHg 62%
    02:00 +19°C° 0 mm 1 mps 745 mmHg 64%
    03:00 +19°C° 0 mm 1 mps 744 mmHg 65%
    04:00 +18°C° 0 mm 1 mps 744 mmHg 67%
    05:00 +19°C° 0 mm 1 mps 745 mmHg 66%
    06:00 +19°C° 0 mm 1 mps 745 mmHg 65%
    07:00 +20°C° 0 mm 1 mps 745 mmHg 59%
    08:00 +21°C° 0 mm 2 mps 745 mmHg 53%
    09:00 +24°C° 0 mm 2 mps 745 mmHg 48%
    10:00 +26°C° 0 mm 2 mps 745 mmHg 42%
    11:00 +27°C° 0 mm 2 mps 745 mmHg 39%
    12:00 +28°C° 0 mm 1 mps 745 mmHg 35%
    13:00 +29°C° 0 mm 1 mps 745 mmHg 32%
    14:00 +29°C° 0 mm 1 mps 744 mmHg 32%
    15:00 +29°C° 0 mm 1 mps 744 mmHg 31%
    16:00 +29°C° 0 mm 1 mps 743 mmHg 31%
    17:00 +27°C° 0 mm 1 mps 743 mmHg 35%
    18:00 +25°C° 0 mm 1 mps 743 mmHg 39%
    19:00 +23°C° 0 mm 1 mps 743 mmHg 43%
    20:00 +22°C° 0 mm 1 mps 743 mmHg 45%
    21:00 +22°C° 0 mm 1 mps 743 mmHg 47%
    22:00 +21°C° 0 mm 1 mps 743 mmHg 49%
    23:00 +21°C° 0 mm 1 mps 743 mmHg 50%

    Tomorrow, 21 September, Friday

    Time Temperature Precipitation Wind Pressure Humidity
    00:00 +20°C° 0 mm 1 mps 743 mmHg 51%
    01:00 +20°C° 0 mm 1 mps 743 mmHg 52%
    02:00 +18°C° 0 mm 2 mps 742 mmHg 53%
    03:00 +18°C° 0 mm 2 mps 742 mmHg 54%
    04:00 +17°C° 0 mm 2 mps 742 mmHg 55%
    05:00 +18°C° 0 mm 2 mps 742 mmHg 55%
    06:00 +18°C° 0 mm 2 mps 742 mmHg 55%
    07:00 +19°C° 0 mm 2 mps 742 mmHg 54%
    08:00 +21°C° 0 mm 2 mps 742 mmHg 48%
    09:00 +24°C° 0 mm 3 mps 742 mmHg 42%
    10:00 +27°C° 0 mm 4 mps 742 mmHg 36%
    11:00 +28°C° 0 mm 4 mps 742 mmHg 33%
    12:00 +29°C° 0 mm 4 mps 741 mmHg 30%
    13:00 +30°C° 0 mm 4 mps 741 mmHg 27%
    14:00 +30°C° 0 mm 4 mps 740 mmHg 28%
    15:00 +30°C° 0 mm 4 mps 740 mmHg 28%
    16:00 +30°C° 0 mm 3 mps 739 mmHg 29%
    17:00 +28°C° 0 mm 3 mps 739 mmHg 33%
    18:00 +26°C° 0 mm 2 mps 739 mmHg 36%
    19:00 +24°C° 0 mm 2 mps 739 mmHg 40%
    20:00 +23°C° 0 mm 2 mps 740 mmHg 42%
    21:00 +23°C° 0 mm 2 mps 740 mmHg 43%
    22:00 +21°C° 0 mm 2 mps 740 mmHg 45%
    23:00 +21°C° 0 mm 2 mps 740 mmHg 48%

    Day after tomorrow, 22 September, Saturday

    Time Temperature Precipitation Wind Pressure Humidity
    00:00 +20°C° 0 mm 2 mps 740 mmHg 50%
    01:00 +20°C° 0 mm 2 mps 741 mmHg 53%
    02:00 +20°C° 0 mm 4 mps 741 mmHg 54%
    03:00 +19°C° 0 mm 6 mps 742 mmHg 55%
    04:00 +18°C° 0 mm 8 mps 742 mmHg 57%
    05:00 +18°C° 0 mm 7 mps 743 mmHg 54%
    06:00 +17°C° 0 mm 7 mps 744 mmHg 51%
    07:00 +17°C° 0 mm 7 mps 744 mmHg 49%
    08:00 +16°C° 0.6 mm 6 mps 745 mmHg 54%
    09:00 +14°C° 0.6 mm 5 mps 746 mmHg 60%
    10:00 +13°C° 0.6 mm 5 mps 746 mmHg 66%
    11:00 +12°C° 0.9 mm 4 mps 747 mmHg 70%
    12:00 +12°C° 0.9 mm 4 mps 747 mmHg 73%
    13:00 +11°C° 0.9 mm 3 mps 747 mmHg 77%
    14:00 +11°C° 0.1 mm 3 mps 747 mmHg 76%
    15:00 +11°C° 0.1 mm 3 mps 747 mmHg 75%
    16:00 +11°C° 0.1 mm 3 mps 746 mmHg 73%
    17:00 +11°C° 0 mm 3 mps 747 mmHg 75%
    18:00 +11°C° 0 mm 3 mps 747 mmHg 77%
    19:00 +10°C° 0 mm 3 mps 747 mmHg 79%
    20:00 +10°C° 0 mm 2 mps 747 mmHg 81%
    21:00 +10°C° 0 mm 2 mps 747 mmHg 83%
    22:00 +9°C° 0 mm 2 mps 747 mmHg 85%
    23:00 +9°C° 0 mm 2 mps 747 mmHg 84%

    23 September, Sunday

    Time Temperature Precipitation Wind Pressure Humidity
    00:00 +10°C° 0 mm 1 mps 747 mmHg 84%
    01:00 +11°C° 0 mm 1 mps 747 mmHg 83%
    02:00 +11°C° 0 mm 1 mps 747 mmHg 81%
    03:00 +11°C° 0 mm 1 mps 747 mmHg 80%
    04:00 +12°C° 0 mm 1 mps 747 mmHg 78%
    05:00 +12°C° 0 mm 1 mps 747 mmHg 77%
    06:00 +12°C° 0 mm 2 mps 747 mmHg 76%
    07:00 +12°C° 0 mm 2 mps 747 mmHg 75%
    08:00 +14°C° 0 mm 2 mps 746 mmHg 70%
    09:00 +14°C° 0 mm 3 mps 746 mmHg 64%
    10:00 +16°C° 0 mm 3 mps 746 mmHg 59%
    11:00 +18°C° 0 mm 4 mps 745 mmHg 52%
    12:00 +20°C° 0 mm 4 mps 745 mmHg 44%
    13:00 +22°C° 0 mm 5 mps 744 mmHg 37%
    14:00 +22°C° 0 mm 5 mps 743 mmHg 38%
    15:00 +23°C° 0 mm 5 mps 742 mmHg 39%
    16:00 +23°C° 0 mm 5 mps 742 mmHg 39%
    17:00 +22°C° 0 mm 4 mps 741 mmHg 44%
    18:00 +21°C° 0 mm 4 mps 740 mmHg 48%
    19:00 +20°C° 0 mm 3 mps 740 mmHg 53%
    20:00 +20°C° 0 mm 4 mps 739 mmHg 54%
    21:00 +20°C° 0 mm 4 mps 739 mmHg 56%
    22:00 +20°C° 0 mm 4 mps 738 mmHg 57%
    23:00 +20°C° 0 mm 4 mps 737 mmHg 61%

    24 September, Monday

    Time Temperature Precipitation Wind Pressure Humidity
    00:00 +19°C° 0 mm 4 mps 737 mmHg 65%
    01:00 +19°C° 0 mm 4 mps 736 mmHg 69%
    02:00 +19°C° 0.1 mm 4 mps 736 mmHg 73%
    03:00 +19°C° 0.1 mm 4 mps 736 mmHg 77%
    04:00 +19°C° 0.1 mm 4 mps 736 mmHg 81%
    05:00 +17°C° 2.3 mm 6 mps 736 mmHg 78%
    06:00 +15°C° 2.3 mm 7 mps 737 mmHg 75%
    07:00 +13°C° 2.3 mm 9 mps 738 mmHg 72%
    08:00 +12°C° 0.4 mm 9 mps 740 mmHg 72%
    09:00 +12°C° 0.4 mm 9 mps 741 mmHg 71%
    10:00 +11°C° 0.4 mm 9 mps 743 mmHg 71%
    11:00 +12°C° 0.1 mm 9 mps 744 mmHg 63%
    12:00 +13°C° 0.1 mm 10 mps 745 mmHg 54%
    13:00 +13°C° 0.1 mm 10 mps 746 mmHg 46%
    14:00 +13°C° 0 mm 9 mps 746 mmHg 44%
    15:00 +13°C° 0 mm 9 mps 746 mmHg 42%
    16:00 +15°C° 0 mm 8 mps 747 mmHg 41%
    17:00 +14°C° 0 mm 7 mps 747 mmHg 43%
    18:00 +13°C° 0 mm 6 mps 748 mmHg 46%
    19:00 +12°C° 0 mm 5 mps 749 mmHg 48%
    20:00 +12°C° 0 mm 5 mps 749 mmHg 49%
    21:00 +10°C° 0 mm 5 mps 749 mmHg 50%
    22:00 +10°C° 0 mm 5 mps 750 mmHg 51%
    23:00 +9°C° 0 mm 5 mps 750 mmHg 53%

    25 September, Tuesday

    Time Temperature Precipitation Wind Pressure Humidity
    00:00 +9°C° 0 mm 5 mps 750 mmHg 55%
    01:00 +8°C° 0 mm 5 mps 751 mmHg 57%
    02:00 +8°C° 0 mm 5 mps 751 mmHg 59%
    03:00 +7°C° 0 mm 5 mps 751 mmHg 60%
    04:00 +7°C° 0 mm 5 mps 752 mmHg 62%
    05:00 +7°C° 0 mm 5 mps 752 mmHg 62%
    06:00 +7°C° 0 mm 5 mps 753 mmHg 61%
    07:00 +7°C° 0 mm 5 mps 753 mmHg 60%
    08:00 +9°C° 0 mm 6 mps 753 mmHg 54%
    09:00 +10°C° 0 mm 6 mps 754 mmHg 49%
    10:00 +13°C° 0 mm 6 mps 754 mmHg 43%
    11:00 +13°C° 0 mm 6 mps 754 mmHg 41%
    12:00 +14°C° 0 mm 6 mps 754 mmHg 40%
    13:00 +15°C° 0 mm 6 mps 753 mmHg 39%
    14:00 +15°C° 0 mm 6 mps 753 mmHg 40%
    15:00 +15°C° 0 mm 6 mps 753 mmHg 40%
    16:00 +14°C° 0 mm 6 mps 752 mmHg 41%
    17:00 +13°C° 0 mm 5 mps 753 mmHg 46%
    18:00 +12°C° 0 mm 4 mps 753 mmHg 50%
    19:00 +10°C° 0 mm 3 mps 753 mmHg 55%
    20:00 +10°C° 0 mm 3 mps 753 mmHg 57%
    21:00 +10°C° 0 mm 3 mps 753 mmHg 60%
    22:00 +9°C° 0 mm 3 mps 753 mmHg 62%
    23:00 +9°C° 0 mm 3 mps 752 mmHg 62%
    Show more